When you browse on this site, cookies collect data to enhance your experience and personalize the content and advertising you see.
Visit our Privacy Policy to learn more. By continuing to use the site, you agree to this use of cookies and data.
  • In Austria
  • List of Countries
  • For 7 days
  • Water Temperature
  • Weather Map
  • News
  • Weather Widgets
  • user-avatar
    Login

    Hourly Weather Sterling

    Today, 18 August, Sunday

    Time Temperature Precipitation Wind Pressure Humidity
    00:00 +26°C° 0 mm 1 mps 753 mmHg 86%
    01:00 +23°C° 0 mm 0 mps 753 mmHg 86%
    02:00 +25°C° 0 mm 1 mps 753 mmHg 87%
    03:00 +25°C° 0 mm 1 mps 753 mmHg 87%
    04:00 +24°C° 0 mm 1 mps 753 mmHg 88%
    05:00 +25°C° 0 mm 1 mps 754 mmHg 86%
    06:00 +26°C° 0 mm 1 mps 754 mmHg 84%
    07:00 +24°C° 0 mm 0 mps 755 mmHg 82%
    08:00 +26°C° 0 mm 0 mps 755 mmHg 74%
    09:00 +28°C° 0 mm 0 mps 755 mmHg 67%
    10:00 +31°C° 0 mm 0 mps 755 mmHg 59%
    11:00 +32°C° 0 mm 0 mps 754 mmHg 54%
    12:00 +33°C° 0 mm 0 mps 754 mmHg 49%
    13:00 +36°C° 0 mm 1 mps 754 mmHg 44%
    14:00 +36°C° 0 mm 1 mps 754 mmHg 45%
    15:00 +36°C° 0 mm 1 mps 753 mmHg 45%
    16:00 +35°C° 0 mm 1 mps 753 mmHg 46%
    17:00 +34°C° 0 mm 1 mps 753 mmHg 51%
    18:00 +32°C° 0 mm 1 mps 753 mmHg 57%
    19:00 +30°C° 0 mm 1 mps 753 mmHg 63%
    20:00 +29°C° 0.1 mm 2 mps 753 mmHg 68%
    21:00 +28°C° 0.1 mm 2 mps 754 mmHg 73%
    22:00 +27°C° 0.1 mm 2 mps 754 mmHg 78%
    23:00 +26°C° 0 mm 2 mps 754 mmHg 81%

    Tomorrow, 19 August, Monday

    Time Temperature Precipitation Wind Pressure Humidity
    00:00 +26°C° 0 mm 2 mps 754 mmHg 84%
    01:00 +25°C° 0 mm 2 mps 753 mmHg 86%
    02:00 +25°C° 0 mm 2 mps 754 mmHg 87%
    03:00 +24°C° 0 mm 1 mps 754 mmHg 87%
    04:00 +24°C° 0 mm 1 mps 754 mmHg 88%
    05:00 +24°C° 0.3 mm 1 mps 754 mmHg 85%
    06:00 +25°C° 0.3 mm 1 mps 754 mmHg 83%
    07:00 +25°C° 0.3 mm 1 mps 754 mmHg 81%
    08:00 +28°C° 0 mm 1 mps 754 mmHg 72%
    09:00 +30°C° 0 mm 1 mps 755 mmHg 64%
    10:00 +33°C° 0 mm 1 mps 755 mmHg 55%
    11:00 +34°C° 0 mm 1 mps 754 mmHg 50%
    12:00 +35°C° 0 mm 1 mps 754 mmHg 45%
    13:00 +37°C° 0 mm 1 mps 754 mmHg 40%
    14:00 +37°C° 0 mm 1 mps 753 mmHg 41%
    15:00 +37°C° 0 mm 1 mps 753 mmHg 41%
    16:00 +38°C° 0 mm 2 mps 753 mmHg 42%
    17:00 +35°C° 0 mm 2 mps 753 mmHg 47%
    18:00 +32°C° 0 mm 2 mps 753 mmHg 53%
    19:00 +30°C° 0 mm 2 mps 753 mmHg 58%
    20:00 +29°C° 0.2 mm 2 mps 754 mmHg 64%
    21:00 +27°C° 0.2 mm 2 mps 754 mmHg 69%
    22:00 +26°C° 0.2 mm 2 mps 754 mmHg 74%
    23:00 +26°C° 0.1 mm 2 mps 754 mmHg 74%

    Day after tomorrow, 20 August, Tuesday

    Time Temperature Precipitation Wind Pressure Humidity
    00:00 +26°C° 0.1 mm 2 mps 754 mmHg 74%
    01:00 +26°C° 0.1 mm 1 mps 754 mmHg 74%
    02:00 +25°C° 0 mm 1 mps 754 mmHg 76%
    03:00 +25°C° 0 mm 1 mps 754 mmHg 78%
    04:00 +25°C° 0 mm 1 mps 754 mmHg 80%
    05:00 +25°C° 0 mm 1 mps 754 mmHg 79%
    06:00 +26°C° 0 mm 1 mps 755 mmHg 77%
    07:00 +25°C° 0 mm 0 mps 755 mmHg 76%
    08:00 +29°C° 0 mm 1 mps 755 mmHg 68%
    09:00 +31°C° 0 mm 1 mps 755 mmHg 61%
    10:00 +34°C° 0 mm 1 mps 755 mmHg 54%
    11:00 +35°C° 0 mm 1 mps 755 mmHg 50%
    12:00 +37°C° 0 mm 2 mps 754 mmHg 47%
    13:00 +38°C° 0 mm 2 mps 754 mmHg 43%
    14:00 +37°C° 0.1 mm 2 mps 754 mmHg 44%
    15:00 +37°C° 0.1 mm 3 mps 753 mmHg 45%
    16:00 +37°C° 0.1 mm 3 mps 753 mmHg 46%
    17:00 +33°C° 5.5 mm 4 mps 753 mmHg 61%
    18:00 +28°C° 5.5 mm 4 mps 753 mmHg 75%
    19:00 +25°C° 5.5 mm 4 mps 753 mmHg 90%
    20:00 +25°C° 2 mm 4 mps 754 mmHg 89%
    21:00 +25°C° 2 mm 3 mps 754 mmHg 88%
    22:00 +25°C° 2 mm 2 mps 754 mmHg 87%
    23:00 +24°C° 1 mm 2 mps 754 mmHg 88%

    21 August, Wednesday

    Time Temperature Precipitation Wind Pressure Humidity
    00:00 +24°C° 1 mm 2 mps 754 mmHg 89%
    01:00 +24°C° 1 mm 2 mps 754 mmHg 90%
    02:00 +24°C° 0 mm 2 mps 754 mmHg 91%
    03:00 +24°C° 0 mm 2 mps 753 mmHg 92%
    04:00 +23°C° 0 mm 2 mps 753 mmHg 93%
    05:00 +24°C° 0 mm 2 mps 753 mmHg 92%
    06:00 +24°C° 0 mm 2 mps 753 mmHg 91%
    07:00 +25°C° 0 mm 1 mps 753 mmHg 90%
    08:00 +27°C° 0 mm 1 mps 753 mmHg 82%
    09:00 +29°C° 0 mm 1 mps 753 mmHg 73%
    10:00 +31°C° 0 mm 1 mps 753 mmHg 64%
    11:00 +34°C° 0 mm 2 mps 753 mmHg 59%
    12:00 +35°C° 0 mm 2 mps 752 mmHg 53%
    13:00 +37°C° 0 mm 2 mps 752 mmHg 48%
    14:00 +37°C° 0 mm 2 mps 751 mmHg 48%
    15:00 +37°C° 0 mm 2 mps 751 mmHg 48%
    16:00 +37°C° 0 mm 3 mps 750 mmHg 48%
    17:00 +36°C° 0.1 mm 3 mps 751 mmHg 52%
    18:00 +34°C° 0.1 mm 3 mps 751 mmHg 56%
    19:00 +32°C° 0.1 mm 2 mps 751 mmHg 59%
    20:00 +30°C° 7.1 mm 3 mps 751 mmHg 68%
    21:00 +27°C° 7.1 mm 4 mps 752 mmHg 76%
    22:00 +25°C° 7.1 mm 5 mps 752 mmHg 84%
    23:00 +25°C° 0.3 mm 4 mps 752 mmHg 83%

    22 August, Thursday

    Time Temperature Precipitation Wind Pressure Humidity
    00:00 +25°C° 0.3 mm 4 mps 751 mmHg 81%
    01:00 +24°C° 0.3 mm 3 mps 751 mmHg 79%
    02:00 +24°C° 0 mm 2 mps 751 mmHg 82%
    03:00 +24°C° 0 mm 2 mps 751 mmHg 85%
    04:00 +24°C° 0 mm 2 mps 750 mmHg 88%
    05:00 +24°C° 0 mm 2 mps 751 mmHg 87%
    06:00 +25°C° 0 mm 1 mps 751 mmHg 86%
    07:00 +25°C° 0 mm 1 mps 752 mmHg 85%
    08:00 +27°C° 0 mm 1 mps 752 mmHg 78%
    09:00 +29°C° 0 mm 1 mps 752 mmHg 71%
    10:00 +31°C° 0 mm 1 mps 752 mmHg 63%
    11:00 +31°C° 0.1 mm 2 mps 752 mmHg 63%
    12:00 +32°C° 0.1 mm 2 mps 752 mmHg 62%
    13:00 +32°C° 0.1 mm 2 mps 752 mmHg 62%
    14:00 +31°C° 1.4 mm 2 mps 752 mmHg 67%
    15:00 +29°C° 1.4 mm 3 mps 751 mmHg 73%
    16:00 +28°C° 1.4 mm 3 mps 751 mmHg 78%
    17:00 +27°C° 0.2 mm 3 mps 751 mmHg 77%
    18:00 +26°C° 0.2 mm 3 mps 751 mmHg 76%
    19:00 +25°C° 0.2 mm 3 mps 752 mmHg 75%
    20:00 +24°C° 0 mm 3 mps 752 mmHg 75%
    21:00 +23°C° 0 mm 2 mps 753 mmHg 75%
    22:00 +21°C° 0 mm 2 mps 754 mmHg 74%
    23:00 +21°C° 0 mm 2 mps 754 mmHg 74%

    23 August, Friday

    Time Temperature Precipitation Wind Pressure Humidity
    00:00 +20°C° 0 mm 3 mps 754 mmHg 74%
    01:00 +19°C° 0 mm 3 mps 754 mmHg 73%
    02:00 +19°C° 0 mm 3 mps 754 mmHg 74%
    03:00 +18°C° 0 mm 2 mps 754 mmHg 75%
    04:00 +17°C° 0 mm 2 mps 755 mmHg 76%
    05:00 +17°C° 0 mm 2 mps 755 mmHg 75%
    06:00 +18°C° 0 mm 2 mps 755 mmHg 74%
    07:00 +18°C° 0 mm 2 mps 756 mmHg 73%
    08:00 +19°C° 0 mm 2 mps 756 mmHg 67%
    09:00 +21°C° 0 mm 2 mps 756 mmHg 60%
    10:00 +23°C° 0 mm 2 mps 756 mmHg 54%
    11:00 +24°C° 0 mm 2 mps 755 mmHg 51%
    12:00 +25°C° 0 mm 2 mps 755 mmHg 49%
    13:00 +26°C° 0 mm 2 mps 755 mmHg 47%
    14:00 +26°C° 0 mm 2 mps 754 mmHg 47%
    15:00 +27°C° 0 mm 2 mps 754 mmHg 48%
    16:00 +27°C° 0 mm 2 mps 754 mmHg 49%
    17:00 +25°C° 0 mm 1 mps 754 mmHg 53%
    18:00 +24°C° 0 mm 1 mps 754 mmHg 58%
    19:00 +22°C° 0 mm 1 mps 754 mmHg 62%
    20:00 +22°C° 0 mm 1 mps 754 mmHg 62%
    21:00 +21°C° 0 mm 1 mps 755 mmHg 62%
    22:00 +19°C° 0 mm 0 mps 755 mmHg 62%
    23:00 +19°C° 0 mm 0 mps 755 mmHg 63%
    Show more